Weather History for CYGV - October, 2013

Change the Weather History Date:

Sunday, October 13, 2013

  Actual Average Record
Temperature  
Mean Temperature 38 °F -  
Max Temperature 51 °F 40 °F 53 °F (2008)
Min Temperature 26 °F 27 °F 21 °F (1996)
Degree Days  
Heating Degree Days 26    
Moisture  
Dew Point 28 °F    
Average Humidity 71    
Maximum Humidity 100    
Minimum Humidity 28    
Precipitation  
Precipitation 0.00 in - - ()
Sea Level Pressure  
Sea Level Pressure 30.39 in    
Wind  
Wind Speed 5 mph ()    
Max Wind Speed 14 mph    
Max Gust Speed 22 mph    
Visibility 9.0 miles    
Events      
Averages and records for this station are not official NWS values.
T = Trace of Precipitation, MM = Missing Value Source: Averaged Metar Reports

Daily Weather History Graph

Daily Weather History Graph

Search for Another Location

Airport or City:

Trip Planner

Search our weather history database for the weather conditions in past years. The results will help you decide how hot, cold, wet, or windy it might be!

Date:

Astronomy

Oct. 13, 2013 Rise Set
Actual Time 6:33 AM EDT 5:26 PM EDT
Civil Twilight 6:01 AM EDT 5:59 PM EDT
Nautical Twilight 5:23 AM EDT 6:36 PM EDT
Astronomical Twilight 4:45 AM EDT 7:14 PM EDT
Moon 2:44 PM EDT (10/13) 12:06 AM EDT (10/13)
Length of Visible Light 11h 58m
Length of Day
10h 52m
Waxing Gibbous, 69% of the Moon is Illuminated
Oct 13
Waxing Gibbous
Oct 18
Full
Oct 26
Last Quarter
Nov 3
New
Nov 10
First Quarter

Hourly Weather History & Observations

Time (EDT) Temp. Windchill Dew Point Humidity Pressure Visibility Wind Dir Wind Speed Gust Speed Precip Events Conditions
12:00 AM 28.4 °F - 26.6 °F 93% 30.44 in 9.0 mi North 2.3 mph - N/A   Clear
1:00 AM 28.4 °F - 24.8 °F 86% 30.44 in 9.0 mi WNW 2.3 mph - N/A   Clear
2:00 AM 28.4 °F 21.2 °F 24.8 °F 86% 30.45 in 9.0 mi North 6.9 mph - N/A   Clear
3:00 AM 26.6 °F - 23.0 °F 86% 30.45 in 9.0 mi Variable 2.3 mph - N/A   Clear
4:00 AM 28.4 °F 21.2 °F 24.8 °F 86% 30.46 in 9.0 mi NNW 6.9 mph - N/A   Clear
5:00 AM 28.4 °F 20.4 °F 23.0 °F 80% 30.46 in 9.0 mi North 8.1 mph - N/A   Clear
6:00 AM 30.2 °F 21.9 °F 23.0 °F 75% 30.45 in 9.0 mi North 9.2 mph - N/A   Clear
7:00 AM 30.2 °F 23.4 °F 23.0 °F 75% 30.45 in 9.0 mi NNE 6.9 mph - N/A   Clear
8:00 AM 35.6 °F 31.7 °F 24.8 °F 65% 30.44 in 9.0 mi NNE 4.6 mph - N/A   Clear
9:00 AM 41.0 °F 37.1 °F 26.6 °F 57% 30.43 in 9.0 mi NNE 5.8 mph - N/A   Clear
10:00 AM 44.6 °F 42.2 °F 28.4 °F 53% 30.43 in 9.0 mi West 4.6 mph - N/A   Clear
11:00 AM 50.0 °F - 24.8 °F 37% 30.42 in 9.0 mi SW 6.9 mph - N/A   Clear
12:00 PM 50.0 °F - 23.0 °F 35% 30.41 in 9.0 mi WSW 9.2 mph - N/A   Clear
1:00 PM 51.8 °F - 19.4 °F 28% 30.39 in 9.0 mi WSW 13.8 mph - N/A   Clear
2:00 PM 50.0 °F - 24.8 °F 37% 30.38 in 9.0 mi WSW 10.4 mph - N/A   Clear
3:00 PM 50.0 °F - 26.6 °F 40% 30.35 in 9.0 mi West 11.5 mph 17.3 mph N/A   Clear
4:00 PM 46.4 °F 40.4 °F 32.0 °F 57% 30.34 in 9.0 mi West 13.8 mph 21.9 mph N/A   Clear
5:00 PM 44.6 °F 38.4 °F 35.6 °F 71% 30.33 in 9.0 mi West 12.7 mph - N/A   Clear
6:00 PM 41.0 °F 37.1 °F 35.6 °F 81% 30.32 in 9.0 mi WSW 5.8 mph - N/A   Clear
7:00 PM 39.2 °F 35.9 °F 37.4 °F 93% 30.31 in 9.0 mi WSW 4.6 mph - N/A   Clear
8:00 PM 37.4 °F 33.8 °F 35.6 °F 93% 30.30 in 9.0 mi West 4.6 mph - N/A   Clear
9:00 PM 35.6 °F - 35.6 °F 100% 30.29 in 9.0 mi WSW 2.3 mph - N/A   Clear
10:00 PM 32.0 °F - 30.2 °F 93% 30.29 in 9.0 mi West 2.3 mph - N/A   Clear
11:00 PM 33.8 °F 29.6 °F 32.0 °F 93% 30.27 in 9.0 mi West 4.6 mph - N/A   Clear